Location: Baix
(44.7118°N, 4.7648°E)
Time: 01:33:14
(UTC+00:00)

IDEFIX/ARIANE 42P - Pass Details

Date: 07 August 2020
Orbit: 786 x 802 km, 98.4° (Epoch: 19 September)

Event Time Altitude Azimuth Distance (km) Brightness Sun altitude
Rises 03:50:06 0° 5° (N) 3,290 6.4 -7.8°
Reaches altitude 10° 03:52:36 10° 356° (N) 2,358 5.4 -7.4°
Maximum altitude 03:57:13 33° 294° (WNW) 1,299 3.4 -6.7°
Drops below altitude 10° 04:01:49 10° 231° (SW) 2,351 4.4 -6.0°
Enters shadow 04:02:44 - 227° (SW) 2,682 4.7 -5.8°
